Location: ???? ?????????
(31.1304°N, 31.7111°E)
Time: 12:35:01
(UTC+00:00)

Cosmos 1745 Rocket - Pass Details

Date: 29 October 2020
Orbit: 953 x 997 km, 83.0° (Epoch: 26 November)

Event Time Altitude Azimuth Distance (km) Brightness Sun altitude
Rises 16:26:56 0° 355° (N) 3,696 7.0 -17.7°
Reaches altitude 10° 16:29:27 10° 357° (N) 2,750 6.3 -18.2°
Maximum altitude 16:35:47 80° 84° (E) 1,012 3.9 -19.5°
Drops below altitude 10° 16:42:07 10° 172° (S) 2,753 6.3 -20.9°
Sets 16:44:38 0° 173° (S) 3,700 7.0 -21.4°
